Location: Eaton Estates
(41.3089°N, 82.0057°W)
Time: 13:07:18
(UTC+00:00)

DELTA 2 R/B (1) - Pass Details

Date: 17 June 2021
Orbit: 789 x 804 km, 39.6° (Epoch: 26 July)

Event Time Altitude Azimuth Distance (km) Brightness Sun altitude
Exits shadow 06:48:27 43° 152° (SSE) 1,091 3.9 -22.7°
Drops below altitude 10° 06:53:28 10° 88° (E) 2,350 6.3 -22.4°
Sets 06:56:03 0° 81° (E) 3,282 7.2 -22.2°
